TimeEDT,TemperatureF,Dew PointF,Humidity,Sea Level PressureIn,VisibilityMPH,Wind Direction,Wind SpeedMPH,Gust SpeedMPH,PrecipitationIn,Events,Conditions,WindDirDegrees,DateUTC
12:14 AM,73.4,68.0,83,30.03,10.0,North,4.6,-,N/A,,Mostly Cloudy,350,2013-08-23 04:14:00
12:34 AM,73.4,68.0,83,30.04,10.0,ENE,5.8,-,N/A,,Scattered Clouds,60,2013-08-23 04:34:00
12:54 AM,73.4,66.2,78,30.05,10.0,NE,9.2,-,N/A,,Mostly Cloudy,50,2013-08-23 04:54:00
1:14 AM,73.4,64.4,73,30.05,10.0,NE,9.2,-,N/A,,Overcast,50,2013-08-23 05:14:00
1:34 AM,71.6,64.4,78,30.06,10.0,NE,6.9,-,N/A,,Mostly Cloudy,50,2013-08-23 05:34:00
1:54 AM,71.6,64.4,78,30.06,10.0,NNE,5.8,-,N/A,,Mostly Cloudy,30,2013-08-23 05:54:00
2:14 AM,71.6,64.4,78,30.06,10.0,NNE,5.8,-,N/A,,Overcast,30,2013-08-23 06:14:00
2:34 AM,71.6,64.4,78,30.06,10.0,North,5.8,-,N/A,,Mostly Cloudy,360,2013-08-23 06:34:00
2:54 AM,71.6,64.4,78,30.05,10.0,North,4.6,-,N/A,,Mostly Cloudy,10,2013-08-23 06:54:00
3:14 AM,71.6,64.4,78,30.06,10.0,North,4.6,-,N/A,,Scattered Clouds,360,2013-08-23 07:14:00
3:34 AM,71.6,62.6,73,30.06,10.0,North,6.9,-,N/A,,Scattered Clouds,360,2013-08-23 07:34:00
3:54 AM,69.8,62.6,78,30.06,10.0,North,8.1,-,N/A,,Scattered Clouds,360,2013-08-23 07:54:00
4:14 AM,69.8,60.8,73,30.06,10.0,North,6.9,-,N/A,,Clear,10,2013-08-23 08:14:00
4:34 AM,69.8,60.8,73,30.06,10.0,North,8.1,-,N/A,,Clear,360,2013-08-23 08:34:00
4:54 AM,68.0,60.8,78,30.06,10.0,North,8.1,-,N/A,,Clear,360,2013-08-23 08:54:00
5:15 AM,68.0,60.8,78,30.06,10.0,North,8.1,-,N/A,,Clear,10,2013-08-23 09:15:00
5:34 AM,68.0,60.8,78,30.06,10.0,North,6.9,-,N/A,,Clear,10,2013-08-23 09:34:00
5:54 AM,66.2,60.8,83,30.07,10.0,North,5.8,-,N/A,,Clear,360,2013-08-23 09:54:00
6:15 AM,66.2,60.8,83,30.07,10.0,North,8.1,-,N/A,,Clear,360,2013-08-23 10:15:00
6:34 AM,66.2,60.8,83,30.08,10.0,North,4.6,-,N/A,,Clear,350,2013-08-23 10:34:00
6:54 AM,64.4,59.0,83,30.09,10.0,North,6.9,-,N/A,,Clear,350,2013-08-23 10:54:00
7:14 AM,64.4,59.0,83,30.10,10.0,North,4.6,-,N/A,,Clear,360,2013-08-23 11:14:00
7:34 AM,66.2,59.0,78,30.10,10.0,North,5.8,-,N/A,,Clear,360,2013-08-23 11:34:00
7:54 AM,66.2,60.8,83,30.11,10.0,North,6.9,-,N/A,,Clear,350,2013-08-23 11:54:00
8:14 AM,68.0,60.8,78,30.11,10.0,North,5.8,-,N/A,,Clear,350,2013-08-23 12:14:00
8:34 AM,69.8,60.8,73,30.12,10.0,North,4.6,-,N/A,,Clear,360,2013-08-23 12:34:00
8:54 AM,69.8,59.0,68,30.12,10.0,North,5.8,-,N/A,,Clear,10,2013-08-23 12:54:00
9:14 AM,71.6,59.0,64,30.12,10.0,North,3.5,-,N/A,,Clear,360,2013-08-23 13:14:00
9:34 AM,71.6,59.0,64,30.12,10.0,North,3.5,-,N/A,,Clear,10,2013-08-23 13:34:00
9:54 AM,73.4,57.2,57,30.12,10.0,North,6.9,-,N/A,,Clear,10,2013-08-23 13:54:00
10:14 AM,73.4,57.2,57,30.13,10.0,NNE,8.1,-,N/A,,Clear,20,2013-08-23 14:14:00
10:34 AM,75.2,55.4,50,30.13,10.0,North,9.2,-,N/A,,Clear,10,2013-08-23 14:34:00
10:54 AM,75.2,55.4,50,30.13,10.0,North,5.8,-,N/A,,Clear,10,2013-08-23 14:54:00
11:14 AM,77.0,53.6,44,30.13,10.0,NNE,6.9,-,N/A,,Clear,30,2013-08-23 15:14:00
11:34 AM,78.8,51.8,39,30.13,10.0,North,8.1,-,N/A,,Clear,10,2013-08-23 15:34:00
11:54 AM,78.8,48.2,34,30.13,10.0,NNE,8.1,-,N/A,,Clear,30,2013-08-23 15:54:00
12:14 PM,78.8,48.2,34,30.13,10.0,ENE,9.2,-,N/A,,Clear,60,2013-08-23 16:14:00
12:34 PM,80.6,46.4,30,30.13,10.0,ENE,8.1,-,N/A,,Clear,60,2013-08-23 16:34:00
12:53 PM,80.6,44.6,28,30.13,10.0,NNE,10.4,-,N/A,,Clear,20,2013-08-23 16:53:00
1:14 PM,80.6,44.6,28,30.13,10.0,ENE,8.1,-,N/A,,Clear,60,2013-08-23 17:14:00
1:34 PM,80.6,44.6,28,30.13,10.0,ENE,8.1,-,N/A,,Clear,60,2013-08-23 17:34:00
1:53 PM,80.6,44.6,28,30.13,10.0,NE,9.2,-,N/A,,Clear,50,2013-08-23 17:53:00
2:14 PM,80.6,46.4,30,30.13,10.0,ENE,6.9,-,N/A,,Clear,60,2013-08-23 18:14:00
2:34 PM,80.6,46.4,30,30.13,10.0,ENE,5.8,-,N/A,,Clear,70,2013-08-23 18:34:00
2:54 PM,80.6,46.4,30,30.13,10.0,NE,5.8,-,N/A,,Clear,50,2013-08-23 18:54:00
3:14 PM,82.4,46.4,28,30.12,10.0,ENE,5.8,-,N/A,,Clear,60,2013-08-23 19:14:00
3:34 PM,82.4,44.6,26,30.12,10.0,Calm,Calm,-,N/A,,Clear,0,2013-08-23 19:34:00
3:54 PM,80.6,48.2,32,30.12,10.0,ENE,8.1,-,N/A,,Clear,70,2013-08-23 19:54:00
4:14 PM,80.6,51.8,37,30.11,10.0,East,5.8,-,N/A,,Clear,90,2013-08-23 20:14:00
4:34 PM,80.6,46.4,30,30.12,10.0,NE,4.6,-,N/A,,Clear,50,2013-08-23 20:34:00
4:54 PM,80.6,50.0,34,30.12,10.0,SSE,3.5,-,N/A,,Clear,160,2013-08-23 20:54:00
5:14 PM,78.8,60.8,54,30.12,10.0,South,9.2,-,N/A,,Clear,190,2013-08-23 21:14:00
5:34 PM,78.8,60.8,54,30.11,10.0,South,5.8,-,N/A,,Clear,180,2013-08-23 21:34:00
5:54 PM,77.0,60.8,57,30.12,10.0,South,4.6,-,N/A,,Clear,190,2013-08-23 21:54:00
6:14 PM,77.0,60.8,57,30.12,10.0,South,4.6,-,N/A,,Clear,170,2013-08-23 22:14:00
6:34 PM,77.0,60.8,57,30.12,10.0,South,5.8,-,N/A,,Clear,170,2013-08-23 22:34:00
6:54 PM,75.2,60.8,61,30.12,10.0,South,4.6,-,N/A,,Clear,170,2013-08-23 22:54:00
7:14 PM,75.2,60.8,61,30.12,10.0,SSE,4.6,-,N/A,,Clear,160,2013-08-23 23:14:00
7:34 PM,73.4,62.6,69,30.13,10.0,SSE,3.5,-,N/A,,Clear,150,2013-08-23 23:34:00
7:54 PM,73.4,60.8,65,30.13,10.0,Calm,Calm,-,N/A,,Clear,0,2013-08-23 23:54:00
8:13 PM,73.4,62.6,69,30.14,2.5,Calm,Calm,-,N/A,,Haze,0,2013-08-24 00:13:00
8:34 PM,73.4,60.8,65,30.14,7.0,NE,9.2,-,N/A,,Scattered Clouds,50,2013-08-24 00:34:00
8:54 PM,71.6,57.2,60,30.15,10.0,NE,5.8,-,N/A,,Clear,50,2013-08-24 00:54:00
9:14 PM,71.6,57.2,60,30.16,10.0,NE,6.9,-,N/A,,Clear,50,2013-08-24 01:14:00
9:34 PM,69.8,57.2,64,30.17,10.0,NE,6.9,-,N/A,,Clear,40,2013-08-24 01:34:00
9:54 PM,69.8,57.2,64,30.18,10.0,NE,6.9,-,N/A,,Clear,50,2013-08-24 01:54:00
10:14 PM,69.8,57.2,64,30.18,10.0,NE,5.8,-,N/A,,Clear,40,2013-08-24 02:14:00
10:34 PM,69.8,57.2,64,30.19,10.0,NNE,5.8,-,N/A,,Clear,30,2013-08-24 02:34:00
10:54 PM,68.0,57.2,68,30.19,10.0,NE,5.8,-,N/A,,Clear,40,2013-08-24 02:54:00
11:14 PM,68.0,57.2,68,30.20,10.0,NNE,4.6,-,N/A,,Clear,30,2013-08-24 03:14:00
11:34 PM,68.0,57.2,68,30.20,10.0,NE,5.8,-,N/A,,Clear,40,2013-08-24 03:34:00
11:54 PM,68.0,57.2,68,30.21,10.0,NE,5.8,-,N/A,,Clear,40,2013-08-24 03:54:00